Погода в Чети-Конторке

Россия / Томская область     57°03′38″N   88°07′07″E
темп.,
°C
ветер,
м/с
пор.,
м/с
влажн.,
%
обл.,
%
осадки,
мм/ч
давл.,
гПа
погр.,
м
17 августа, ср
ср1701:00+8юз3899100 2.2 1009471
04:00+8зюз3899100 1.9 1009429
07:00+9з4999100 5.5 1009588
10:00+8зюз2798100 2.0 1010388
13:00+9юз1595100 2.9 1010304
16:00+11ююз2386100 0.1 1010452
19:00+10ю1292100 0.4 101088
22:00+7ю229763 0.0 101020
18 августа, чт
чт1801:00+8вюв1195100 0.1 101033
04:00+8юв2296100 0.0 101038
07:00+8ююв1194100 0.0 101015
10:00+11вюв128776 0.3 1010177
13:00+13ююз227824 1.5 1011922
16:00+12зюз348988 1.8 1012518
19:00+12зюз1388100 2.4 1012172
22:00+8з1195100 0.0 101310
19 августа, пт
пт1901:00+6зсз1195100 0.0 101211
04:00+6з2295100 0.0 101221
07:00+6з2495100 0.0 1012107
10:00+10з2479100 0.0 1012399
13:00+14зсз2364100 0.0 10121134
16:00+14зсз3474100 0.7 1012849
19:00+10сз2696100 1.4 1013314
22:00+9зюз269898 1.0 1013225
20 августа, сб
сб2001:00+10зюз3899100 1.1 1014299
04:00+10зюз3799100 0.0 1014323
07:00+10зюз269999 0.0 1015302
10:00+12зюз3592100 0.0 1015519
13:00+12зюз369396 0.1 1016552
16:00+14юз4683100 0.1 1015624
19:00+15зюз4779100 0.4 1014700
22:00+11юз3997100 0.1 1014278
21 августа, вс
вс2101:00+9зюз2898100 0.1 1014179
04:00+9юз2898100 0.0 1012207
07:00+9зюз2993100 0.0 1012321
10:00+9зюз3997100 1.1 1012498
13:00+9зюз41197100 2.0 1013803
16:00+9зюз41097100 0.5 1013728
19:00+9зюз2799100 1.8 1014527
22:00+9з1499100 0.1 1015212